Location: Kellogg
(38.0159°N, 90.0546°W)
Time: 03:02:52
(UTC+00:00)

SR - Pass Details

Date: 21 September 2024
Orbit: 578 x 855 km, 66.7° (Epoch: 08 October)

Event Time Altitude Azimuth Distance (km) Brightness Sun altitude
Rises 03:36:55 0° 321° (NW) 3,010 ? -40.3°
Reaches altitude 10° 03:39:20 10° 312° (NW) 2,137 ? -40.6°
Enters shadow 03:39:57 13° 308° (NW) 1,932 ? -40.7°
